Location: Yellowknife
(62.4500°N, 114.3500°W)
Time: 15:20:58
(UTC-06:00)

Amateur Radio Satellites - All Passes

Search period start: 03 August 2015 14:50
Search period end: 04 August 2015 14:50
Location: Yellowknife, 62.4500°N, 114.3500°W

Satellite Date Start Highest point End Downlink Frequencies (MHz)
Time Altitude Azimuth
Cubesat XI-IV 03 Aug 14:53:56 14:56:12 13° 19° (NNE) 14:58:32 437.490
SPROUT 03 Aug 15:00:34 15:04:50 60° 295° (WNW) 15:09:05 437.525
TISAT 1 03 Aug 15:01:42 15:05:56 81° 291° (WNW) 15:10:10 437.305
AO-7 03 Aug 15:03:51 15:12:07 67° 53° (NE) 15:20:25 29.400- 29.500
VELOX 1 03 Aug 15:07:48 15:11:21 24° 311° (NW) 15:14:51 145.980
Cosmos 2504 03 Aug 15:14:09 15:22:12 59° 267° (W) 15:30:34 435.465 / 435.565
BEESAT 03 Aug 15:15:54 15:20:25 40° 97° (E) 15:24:57 436.000
ZACube-1 03 Aug 15:18:31 15:19:35 11° 330° (NNW) 15:20:34 437.345
KKS-1 03 Aug 15:25:17 15:27:48 15° 82° (E) 15:30:27 437.445
ESTCUBE 1 03 Aug 15:30:10 15:33:41 22° 313° (NW) 15:37:07 437.505/2401.250
Gurwin Techsat 1B 03 Aug 15:30:49 15:35:56 46° 262° (W) 15:41:05 435.225
AIST 1 03 Aug 15:32:04 15:34:53 16° 315° (NW) 15:37:38
SWISSCUBE 03 Aug 15:36:52 15:41:37 57° 103° (ESE) 15:46:20 437.505
ITAMSAT 1 03 Aug 15:37:20 15:42:19 43° 262° (W) 15:47:19 435.822/435.867
HORYU 2 03 Aug 15:39:59 15:44:24 60° 64° (ENE) 15:48:52 437.375
HUMSAT D 03 Aug 15:43:10 15:44:13 11° 328° (NNW) 15:45:13 437.325/437.525
YUBILEINY 03 Aug 15:43:59 15:48:09 14° 305° (NW) 15:51:59 435.215
CUTE-I 03 Aug 15:47:00 15:50:25 18° 32° (NNE) 15:53:54 437.470
UKube-1 03 Aug 15:47:54 15:50:01 13° 325° (NW) 15:52:03 .
Oscar 19 03 Aug 15:52:20 15:55:39 17° 280° (W) 15:58:51 437.125/150
HO-68 03 Aug 15:56:58 16:01:56 21° 359° (N) 16:06:55 435.675
JAS-2 03 Aug 15:58:33 16:05:13 69° 257° (WSW) 16:12:44 435.910
ITUPSAT 1 03 Aug 15:59:12 16:04:03 74° 106° (ESE) 16:08:50 437.325
AISAT 03 Aug 16:06:48 16:08:56 13° 325° (NW) 16:11:00 437.250
CUBEBUG 1 03 Aug 16:12:16 16:14:42 15° 321° (NW) 16:17:05 437.445
PCSat 03 Aug 16:13:55 16:19:24 75° 27° (NNE) 16:24:52 145.827
SO-50 03 Aug 16:15:01 16:20:01 81° 208° (SSW) 16:25:00 436.795
Cosmos 2499 03 Aug 16:17:46 16:24:46 28° 33° (NNE) 16:32:08 435.465 / 435.565
STARS 03 Aug 16:27:19 16:31:07 27° 92° (E) 16:34:57 437.465
GONETS M04 03 Aug 16:30:05 16:38:37 54° 59° (ENE) 16:47:10
Cubesat XI-IV 03 Aug 16:30:29 16:34:46 25° 42° (NE) 16:39:05 437.490
DANDE 03 Aug 16:31:06 16:34:10 34° 260° (W) 16:38:02 436.750
CUSAT 1 03 Aug 16:31:31 16:34:47 28° 263° (W) 16:38:49 437.405
Cosmos 2491 03 Aug 16:33:14 16:40:50 31° 323° (NW) 16:48:21 435.465 / 435.565
MOZHAYETS 4 03 Aug 16:35:38 16:37:43 13° 78° (ENE) 16:39:57
SPROUT 03 Aug 16:37:18 16:40:14 18° 316° (NW) 16:43:07 437.525
TISAT 1 03 Aug 16:37:58 16:41:13 22° 312° (NW) 16:44:25 437.305
BEESAT 03 Aug 16:53:46 16:58:27 52° 299° (WNW) 17:03:06 436.000
AO-7 03 Aug 16:57:07 17:05:18 54° 258° (WSW) 17:13:30 29.400- 29.500
KKS-1 03 Aug 17:00:55 17:05:23 63° 104° (ESE) 17:09:49 437.445
Cosmos 2504 03 Aug 17:07:00 17:12:59 22° 291° (WNW) 17:18:53 435.465 / 435.565
SWISSCUBE 03 Aug 17:14:55 17:19:22 38° 304° (NW) 17:23:47 437.505
Gurwin Techsat 1B 03 Aug 17:15:08 17:17:25 12° 286° (WNW) 17:19:30 435.225
HORYU 2 03 Aug 17:17:18 17:21:21 32° 266° (W) 17:25:24 437.375
ITAMSAT 1 03 Aug 17:21:29 17:23:20 12° 285° (WNW) 17:24:59 435.822/435.867
CUTE-I 03 Aug 17:24:25 17:29:25 42° 55° (NE) 17:34:27 437.470
ITUPSAT 1 03 Aug 17:37:24 17:41:40 32° 308° (NW) 17:45:52 437.325
HO-68 03 Aug 17:42:01 17:47:40 26° 26° (NNE) 17:53:24 435.675
JAS-2 03 Aug 17:46:26 17:51:49 24° 283° (WNW) 17:57:31 435.910
SO-50 03 Aug 17:55:43 18:00:10 33° 230° (SW) 18:04:33 436.795
PCSat 03 Aug 17:57:29 18:02:42 47° 231° (SW) 18:07:54 145.827
STARS 03 Aug 18:03:32 18:07:58 69° 293° (WNW) 18:12:23 437.465
GOMX 1 03 Aug 18:04:15 18:06:20 14° 39° (NE) 18:08:30 467.674
BRITE-PL 03 Aug 18:06:48 18:09:34 18° 45° (NE) 18:12:23 437.365/2234.400
Cubesat XI-IV 03 Aug 18:08:52 18:14:13 71° 65° (ENE) 18:19:35 437.490
MOZHAYETS 4 03 Aug 18:11:31 18:16:06 53° 101° (E) 18:20:38
Cosmos 2499 03 Aug 18:11:38 18:20:03 57° 61° (ENE) 18:28:49 435.465 / 435.565
GONETS M04 03 Aug 18:27:17 18:35:52 64° 266° (W) 18:44:26
SEEDS 03 Aug 18:31:18 18:33:06 13° 37° (NE) 18:34:59 437.485
BEESAT 03 Aug 18:32:11 18:35:28 18° 321° (NW) 18:38:41 436.000
Cosmos 2491 03 Aug 18:34:55 18:41:12 21° 355° (N) 18:47:26 435.465 / 435.565
CUBESAT XI-V 03 Aug 18:36:53 18:39:54 17° 82° (E) 18:43:01 437.345
KKS-1 03 Aug 18:37:49 18:41:50 33° 305° (NW) 18:45:49 437.445
CUTE 1.7 + AOD 2 03 Aug 18:38:01 18:40:24 15° 40° (NE) 18:42:52 437.475
CANX-2 03 Aug 18:46:21 18:49:06 17° 43° (NE) 18:51:55 2200.000
AAUSAT CUBESAT 2 03 Aug 18:50:24 18:52:13 13° 38° (NE) 18:54:09 437.432
SWISSCUBE 03 Aug 18:53:28 18:56:10 15° 327° (NNW) 18:58:48 437.505
AO-7 03 Aug 18:54:35 19:00:22 19° 284° (WNW) 19:05:53 29.400- 29.500
Oscar 11 03 Aug 18:54:56 18:55:47 11° 31° (NNE) 18:56:43 145.826/435.025
UWE-3 03 Aug 18:57:35 18:57:56 10° 28° (NNE) 18:58:22 435.000/436.395/437.385
CUTE-I 03 Aug 19:04:06 19:09:26 60° 257° (WSW) 19:14:46 437.470
CINEMA 3 03 Aug 19:04:34 19:07:06 16° 40° (NE) 19:09:46 145.822/145.860
DOVE 4 03 Aug 19:14:54 19:18:16 24° 50° (NE) 19:21:46 437.250
ITUPSAT 1 03 Aug 19:16:05 19:18:21 13° 331° (NNW) 19:20:31 437.325
CUBEBUG 2 03 Aug 19:17:01 19:19:04 13° 36° (NE) 19:21:14 437.445
HO-68 03 Aug 19:27:20 19:34:10 51° 50° (NE) 19:41:05 435.675
GOMX 1 03 Aug 19:39:40 19:43:36 43° 61° (ENE) 19:47:38 467.674
STARS 03 Aug 19:40:31 19:43:49 20° 315° (NW) 19:47:03 437.465
PCSat 03 Aug 19:42:02 19:45:03 15° 252° (WSW) 19:47:55 145.827
BRITE-PL 03 Aug 19:43:21 19:47:30 64° 68° (ENE) 19:51:40 437.365/2234.400
COMPASS 1 03 Aug 19:44:43 19:48:10 25° 52° (NE) 19:51:42 437.405
MOZHAYETS 4 03 Aug 19:48:55 19:53:16 39° 302° (WNW) 19:57:33
Cubesat XI-IV 03 Aug 19:49:55 19:54:47 33° 267° (W) 19:59:38 437.490
DELFI C3 03 Aug 19:50:56 19:53:03 14° 41° (NE) 19:55:12 145.870
ZACube-1 03 Aug 20:00:21 20:03:03 17° 41° (NE) 20:05:52 437.345
SEEDS 03 Aug 20:03:58 20:07:54 36° 58° (ENE) 20:11:51 437.485
PRISM 03 Aug 20:04:30 20:07:43 22° 89° (E) 20:10:59 437.425
Cosmos 2499 03 Aug 20:05:05 20:13:33 62° 266° (W) 20:22:14 435.465 / 435.565
RS-15 03 Aug 20:09:01 20:13:42 14° 90° (E) 20:19:04 29.354- 29.394
CUTE 1.7 + AOD 2 03 Aug 20:11:20 20:15:27 46° 62° (ENE) 20:19:37 437.475
CUBESAT XI-V 03 Aug 20:13:34 20:18:14 72° 105° (ESE) 20:22:50 437.345
STRAND 1 03 Aug 20:14:56 20:19:34 34° 93° (E) 20:24:12 437.568
KKS-1 03 Aug 20:15:28 20:17:22 12° 328° (NNW) 20:19:12 437.445
CANX-2 03 Aug 20:20:04 20:24:17 56° 64° (ENE) 20:28:32 2200.000
FUNcube-1 03 Aug 20:20:04 20:23:12 20° 46° (NE) 20:26:27 145.935
AAUSAT CUBESAT 2 03 Aug 20:22:57 20:26:51 38° 59° (ENE) 20:30:48 437.432
HUMSAT D 03 Aug 20:23:40 20:25:50 14° 39° (NE) 20:28:07 437.325/437.525
GONETS M04 03 Aug 20:24:43 20:31:13 24° 291° (WNW) 20:37:32
Oscar 11 03 Aug 20:27:04 20:30:45 28° 53° (NE) 20:34:30 145.826/435.025
UWE-3 03 Aug 20:29:36 20:33:09 26° 51° (NE) 20:36:50 435.000/436.395/437.385
UKube-1 03 Aug 20:30:51 20:33:02 14° 36° (NE) 20:35:16 .
AIST 1 03 Aug 20:34:27 20:34:43 10° 33° (NNE) 20:35:06
Cosmos 2491 03 Aug 20:34:51 20:41:50 26° 27° (NNE) 20:48:52 435.465 / 435.565
CINEMA 3 03 Aug 20:39:21 20:43:27 49° 62° (ENE) 20:47:44 145.822/145.860
CUTE-I 03 Aug 20:47:16 20:50:42 17° 280° (W) 20:54:01 437.470
CUBEBUG 2 03 Aug 20:50:45 20:54:43 37° 58° (ENE) 20:58:51 437.445
AISAT 03 Aug 20:50:53 20:53:13 14° 37° (NE) 20:55:38 437.250
DOVE 4 03 Aug 20:51:29 20:55:39 84° 252° (WSW) 20:59:59 437.250
CUBEBUG 1 03 Aug 20:56:50 20:58:18 12° 33° (NNE) 20:59:50 437.445
50 SAT 03 Aug 20:59:55 21:01:50 13° 41° (NE) 21:03:51 437.505
DX 1 03 Aug 21:02:15 21:05:21 20° 45° (NE) 21:08:32 434.975-435.025
HO-68 03 Aug 21:14:45 21:21:53 65° 254° (WSW) 21:29:03 435.675
GOMX 1 03 Aug 21:17:57 21:21:53 39° 263° (W) 21:25:51 467.674
COMPASS 1 03 Aug 21:19:12 21:23:27 83° 252° (WSW) 21:27:45 437.405
BRITE-PL 03 Aug 21:22:55 21:26:29 26° 269° (W) 21:30:00 437.365/2234.400
DELFI C3 03 Aug 21:23:22 21:27:16 45° 62° (ENE) 21:31:13 145.870
MOZHAYETS 4 03 Aug 21:26:56 21:29:28 14° 324° (NW) 21:31:54
VELOX 1 03 Aug 21:27:42 21:30:55 21° 46° (NE) 21:34:13 145.980
ZACube-1 03 Aug 21:34:24 21:38:35 52° 63° (ENE) 21:42:55 437.345
SEEDS 03 Aug 21:39:24 21:43:36 51° 259° (W) 21:47:49 437.485
PRISM 03 Aug 21:39:30 21:43:40 80° 293° (WNW) 21:47:48 437.425
CUTE 1.7 + AOD 2 03 Aug 21:47:23 21:51:28 40° 263° (W) 21:55:34 437.475
ESTCUBE 1 03 Aug 21:50:54 21:54:25 23° 48° (NE) 21:58:00 437.505/2401.250
CUBESAT XI-V 03 Aug 21:51:20 21:55:24 31° 307° (NW) 21:59:24 437.345
STRAND 1 03 Aug 21:54:04 21:59:11 67° 296° (WNW) 22:04:15 437.568
FUNcube-1 03 Aug 21:54:37 21:58:53 70° 68° (ENE) 22:03:19 145.935
CANX-2 03 Aug 21:56:32 22:00:27 32° 266° (W) 22:04:22 2200.000
HUMSAT D 03 Aug 21:56:41 22:00:40 42° 61° (ENE) 22:04:45 437.325/437.525
AAUSAT CUBESAT 2 03 Aug 21:58:17 22:02:24 48° 260° (W) 22:06:33 437.432
Cosmos 2499 03 Aug 21:58:49 22:05:17 24° 290° (WNW) 22:11:41 435.465 / 435.565
Oscar 11 03 Aug 22:02:15 22:06:37 76° 254° (WSW) 22:11:01 145.826/435.025
UKube-1 03 Aug 22:04:11 22:08:13 39° 58° (ENE) 22:12:16 .
UWE-3 03 Aug 22:04:58 22:09:17 84° 255° (WSW) 22:13:45 435.000/436.395/437.385
AIST 1 03 Aug 22:10:05 22:13:52 30° 58° (ENE) 22:17:40
RS-15 03 Aug 22:12:52 22:22:44 42° 117° (ESE) 22:33:08 29.354- 29.394
CINEMA 3 03 Aug 22:16:53 22:20:50 37° 265° (W) 22:24:56 145.822/145.860
M-CUBED/EXP-1 PRIME 03 Aug 22:23:32 22:26:26 16° 89° (E) 22:29:27 437.505
AISAT 03 Aug 22:24:44 22:28:52 41° 59° (ENE) 22:33:03 437.250
CUBEBUG 2 03 Aug 22:27:09 22:31:21 51° 260° (W) 22:35:43 437.445
ITUPSAT 1 03 Aug 22:29:36 22:30:15 10° 20° (NNE) 22:30:57 437.325
CUBEBUG 1 03 Aug 22:29:43 22:33:33 31° 55° (NE) 22:37:25 437.445
DOVE 4 03 Aug 22:31:16 22:34:12 18° 276° (W) 22:37:06 437.250
50 SAT 03 Aug 22:31:49 22:35:34 44° 62° (ENE) 22:39:24 437.505
Cosmos 2491 03 Aug 22:32:44 22:41:12 51° 57° (ENE) 22:49:40 435.465 / 435.565
DX 1 03 Aug 22:36:41 22:41:00 67° 66° (ENE) 22:45:20 434.975-435.025
UNISAT 6 03 Aug 22:48:03 22:50:38 15° 80° (E) 22:53:22 437.425
AUBIESAT-1 03 Aug 22:49:36 22:53:11 21° 93° (E) 22:56:47 437.475
SPROUT 03 Aug 22:54:26 22:57:48 23° 50° (NE) 23:01:13 437.525
TISAT 1 03 Aug 22:54:44 22:57:36 18° 45° (NE) 23:00:33 437.305
COMPASS 1 03 Aug 22:56:47 22:59:49 18° 275° (W) 23:02:46 437.405
DELFI C3 03 Aug 22:58:36 23:02:26 37° 263° (W) 23:06:17 145.870
VELOX 1 03 Aug 23:02:30 23:06:54 70° 67° (ENE) 23:11:18 145.980
HO-68 03 Aug 23:05:41 23:11:09 22° 279° (W) 23:16:28 435.675
YUBILEINY 03 Aug 23:10:06 23:16:16 23° 68° (ENE) 23:22:40 435.215
ISS 03 Aug 23:10:42 23:11:37 11° 165° (SSE) 23:12:35 145.825
ZACube-1 03 Aug 23:11:11 23:15:09 35° 265° (W) 23:19:14 437.345
PRISM 03 Aug 23:15:27 23:18:37 21° 313° (NW) 23:21:42 437.425
SEEDS 03 Aug 23:18:48 23:20:27 12° 282° (WNW) 23:21:58 437.485
BEESAT 03 Aug 23:20:56 23:23:33 15° 33° (NNE) 23:26:14 436.000
ESTCUBE 1 03 Aug 23:26:14 23:30:47 80° 68° (ENE) 23:35:20 437.505/2401.250
TIGRISAT 03 Aug 23:29:25 23:33:20 26° 90° (E) 23:37:19 435.000
CUBESAT XI-V 03 Aug 23:29:51 23:31:39 12° 329° (NNW) 23:33:20 437.345
FUNcube-1 03 Aug 23:31:59 23:35:39 26° 270° (W) 23:39:23 145.935
BEESAT 3 03 Aug 23:32:22 23:33:35 11° 116° (ESE) 23:34:55 437.485
HUMSAT D 03 Aug 23:32:25 23:36:27 42° 262° (W) 23:40:33 437.325/437.525
ANTELSAT 03 Aug 23:32:31 23:36:33 28° 91° (E) 23:40:39 437.575/2403.000
STRAND 1 03 Aug 23:33:43 23:37:42 23° 318° (NW) 23:41:38 437.568
AAUSAT CUBESAT 2 03 Aug 23:37:54 23:39:07 11° 283° (WNW) 23:40:10 437.432
UKube-1 03 Aug 23:40:07 23:44:19 48° 259° (W) 23:48:33 .
Oscar 11 03 Aug 23:40:35 23:43:34 17° 276° (W) 23:46:29 145.826/435.025
SWISSCUBE 03 Aug 23:41:04 23:44:17 18° 39° (NE) 23:47:34 437.505
UWE-3 03 Aug 23:43:23 23:46:33 19° 276° (W) 23:49:41 435.000/436.395/437.385
POLYITAN 1 03 Aug 23:43:59 23:46:46 17° 84° (E) 23:49:38 437.675
AIST 1 03 Aug 23:47:37 23:51:52 61° 260° (W) 23:56:04
BUGSAT 1 03 Aug 23:48:10 23:49:46 12° 81° (E) 23:51:30 437.445
M-CUBED/EXP-1 PRIME 03 Aug 23:57:23 00:02:10 60° 111° (ESE) 00:06:55 437.505
POPSAT HIP 1 03 Aug 23:59:31 00:02:46 21° 88° (E) 00:06:05 437.405
AISAT 04 Aug 00:01:12 00:05:28 46° 260° (W) 00:09:44 437.250
ITUPSAT 1 04 Aug 00:03:02 00:06:37 22° 43° (NE) 00:10:17 437.325
CUBEBUG 1 04 Aug 00:05:24 00:09:43 64° 256° (WSW) 00:14:02 437.445
50 SAT 04 Aug 00:06:34 00:10:14 36° 263° (W) 00:13:57 437.505
CUBEBUG 2 04 Aug 00:07:32 00:09:13 12° 283° (WNW) 00:10:45 437.445
QB50P2 04 Aug 00:07:53 00:11:24 24° 90° (E) 00:14:57 145.880/145.840
DX 1 04 Aug 00:13:52 00:17:38 27° 267° (W) 00:21:22 434.975-435.025
RS-15 04 Aug 00:22:52 00:33:57 80° 145° (SE) 00:45:37 29.354- 29.394
AUBIESAT-1 04 Aug 00:23:46 00:28:35 79° 115° (ESE) 00:33:19 437.475
UNISAT 6 04 Aug 00:23:47 00:28:26 59° 102° (ESE) 00:33:07 437.425
TISAT 1 04 Aug 00:28:35 00:32:45 65° 66° (ENE) 00:36:56 437.305
DUCHIFAT 1 04 Aug 00:28:42 00:32:32 32° 94° (E) 00:36:23 145.980
SPROUT 04 Aug 00:29:08 00:33:26 87° 73° (ENE) 00:37:45 437.525
Cosmos 2491 04 Aug 00:29:57 00:38:37 68° 264° (W) 00:47:13 435.465 / 435.565
BEESAT 2 04 Aug 00:32:20 00:35:35 23° 127° (SE) 00:38:52 435.950
NANOSAT C BR1 04 Aug 00:34:18 00:38:15 35° 96° (E) 00:42:12 145.865
QB50P1 04 Aug 00:34:23 00:38:20 36° 96° (E) 00:42:19 145.935-145.965
VELOX 1 04 Aug 00:40:05 00:43:52 27° 269° (W) 00:47:37 145.980
ISS 04 Aug 00:45:31 00:47:04 13° 185° (S) 00:48:37 145.825
AIST 2 04 Aug 00:50:03 00:51:58 13° 117° (ESE) 00:54:01 435.215
BEESAT 04 Aug 00:55:55 01:00:19 38° 56° (NE) 01:04:47 436.000
KKS-1 04 Aug 00:59:09 01:01:50 16° 39° (NE) 01:04:37 437.445
YUBILEINY 04 Aug 01:02:58 01:11:29 61° 93° (E) 01:20:06 435.215
ESTCUBE 1 04 Aug 01:04:27 01:08:11 24° 271° (W) 01:11:52 437.505/2401.250
TIGRISAT 04 Aug 01:05:53 01:10:34 78° 293° (WNW) 01:15:18 435.000
BEESAT 3 04 Aug 01:06:46 01:10:36 39° 137° (SE) 01:14:28 437.485
ANTELSAT 04 Aug 01:09:05 01:13:46 73° 293° (WNW) 01:18:29 437.575/2403.000
STRAND 1 04 Aug 01:13:37 01:15:22 12° 342° (NNW) 01:17:03 437.568
SWISSCUBE 04 Aug 01:16:39 01:21:19 52° 61° (ENE) 01:26:00 437.505
POLYITAN 1 04 Aug 01:19:07 01:23:25 76° 106° (ESE) 01:27:44 437.675
UKube-1 04 Aug 01:20:14 01:21:35 11° 282° (WNW) 01:22:46 .
BUGSAT 1 04 Aug 01:22:10 01:26:11 56° 103° (ESE) 01:30:13 437.445
AIST 1 04 Aug 01:26:36 01:28:44 13° 282° (WNW) 01:30:43
O/OREOS (USA 219) 04 Aug 01:30:23 01:33:18 17° 104° (ESE) 01:36:19 437.305
M-CUBED/EXP-1 PRIME 04 Aug 01:32:18 01:36:50 42° 311° (NW) 01:41:20 437.505
POPSAT HIP 1 04 Aug 01:34:55 01:39:13 86° 287° (WNW) 01:43:30 437.405
ITUPSAT 1 04 Aug 01:39:04 01:43:51 66° 65° (ENE) 01:48:40 437.325
AISAT 04 Aug 01:42:04 01:43:14 11° 283° (WNW) 01:44:13 437.250
QB50P2 04 Aug 01:43:27 01:47:45 74° 291° (WNW) 01:52:01 145.880/145.840
CUBEBUG 1 04 Aug 01:44:30 01:46:59 15° 278° (W) 01:49:22 437.445
AUBIESAT-1 04 Aug 01:58:42 02:02:59 34° 316° (NW) 02:07:13 437.475
STARS 04 Aug 01:59:29 02:02:59 24° 48° (NE) 02:06:32 437.465
UNISAT 6 04 Aug 02:00:47 02:05:04 37° 304° (WNW) 02:09:23 437.425
DUCHIFAT 1 04 Aug 02:04:24 02:08:34 55° 296° (WNW) 02:12:44 145.980
TISAT 1 04 Aug 02:05:16 02:08:52 27° 268° (W) 02:12:28 437.305
SPROUT 04 Aug 02:06:49 02:10:06 21° 273° (W) 02:13:21 437.525
Cosmos 2504 04 Aug 02:07:08 02:13:13 29° 75° (ENE) 02:19:48 435.465 / 435.565
BEESAT 2 04 Aug 02:09:00 02:13:07 70° 148° (SSE) 02:17:15 435.950
NANOSAT C BR1 04 Aug 02:10:07 02:14:15 50° 297° (WNW) 02:18:23 145.865
QB50P1 04 Aug 02:10:14 02:14:22 49° 297° (WNW) 02:18:30 145.935-145.965
Oscar 19 04 Aug 02:10:30 02:14:37 24° 87° (E) 02:18:48 437.125/150
MOZHAYETS 4 04 Aug 02:12:58 02:15:29 15° 36° (NE) 02:18:06
AIST 2 04 Aug 02:25:36 02:29:40 43° 138° (SE) 02:33:44 435.215
Cosmos 2491 04 Aug 02:27:21 02:34:06 25° 289° (WNW) 02:40:39 435.465 / 435.565
BEESAT 04 Aug 02:33:18 02:38:04 59° 257° (WSW) 02:42:50 436.000
KKS-1 04 Aug 02:33:22 02:37:38 48° 61° (ENE) 02:41:57 437.445
RS-15 04 Aug 02:35:27 02:46:47 80° 357° (N) 02:58:43 29.354- 29.394
TIGRISAT 04 Aug 02:43:05 02:46:47 23° 312° (NW) 02:50:27 435.000
BEESAT 3 04 Aug 02:44:14 02:48:22 82° 338° (NNW) 02:52:29 437.485
ANTELSAT 04 Aug 02:46:21 02:49:58 22° 314° (NW) 02:53:34 437.575/2403.000
SWISSCUBE 04 Aug 02:54:46 02:59:20 41° 263° (W) 03:03:53 437.505
POLYITAN 1 04 Aug 02:55:22 02:59:00 27° 307° (NW) 03:02:37 437.675
JAS-2 04 Aug 02:55:43 03:01:01 20° 73° (ENE) 03:06:35 435.910
BUGSAT 1 04 Aug 02:57:52 03:01:31 32° 304° (WNW) 03:05:09 437.445
YUBILEINY 04 Aug 03:00:01 03:08:37 56° 300° (WNW) 03:17:17 435.215
M-CUBED/EXP-1 PRIME 04 Aug 03:07:22 03:10:41 19° 333° (NNW) 03:13:58 437.505
O/OREOS (USA 219) 04 Aug 03:07:32 03:12:01 68° 125° (SE) 03:16:34 437.305
POPSAT HIP 1 04 Aug 03:11:16 03:14:38 23° 311° (NW) 03:17:57 437.405
ITUPSAT 1 04 Aug 03:17:48 03:22:08 32° 267° (W) 03:26:27 437.325
QB50P2 04 Aug 03:19:53 03:23:05 20° 313° (NW) 03:26:13 145.880/145.840
AUBIESAT-1 04 Aug 03:33:41 03:36:37 16° 338° (NNW) 03:39:31 437.475
STARS 04 Aug 03:34:34 03:38:57 87° 76° (ENE) 03:43:24 437.465
Gurwin Techsat 1B 04 Aug 03:35:18 03:40:11 35° 93° (E) 03:45:04 435.225
UNISAT 6 04 Aug 03:38:24 03:40:48 14° 325° (NW) 03:43:08 437.425
ITAMSAT 1 04 Aug 03:38:32 03:43:13 33° 93° (E) 03:47:53 435.822/435.867
DUCHIFAT 1 04 Aug 03:40:55 03:43:40 17° 317° (NW) 03:46:21 145.980
NANOSAT C BR1 04 Aug 03:46:43 03:49:18 16° 319° (NW) 03:51:50 145.865
QB50P1 04 Aug 03:46:52 03:49:26 16° 319° (NW) 03:51:57 145.935-145.965
BEESAT 2 04 Aug 03:47:10 03:51:17 65° 351° (N) 03:55:24 435.950
MOZHAYETS 4 04 Aug 03:47:22 03:51:43 40° 58° (ENE) 03:56:06
Oscar 19 04 Aug 03:49:30 03:54:44 86° 109° (ESE) 03:59:58 437.125/150
GONETS M04 04 Aug 03:56:17 03:59:29 13° 54° (NE) 04:03:04
Cosmos 2504 04 Aug 03:56:55 04:04:23 80° 100° (E) 04:12:30 435.465 / 435.565
AIST 2 04 Aug 04:03:48 04:08:06 80° 340° (NNW) 04:12:22 435.215
KKS-1 04 Aug 04:10:13 04:14:24 39° 263° (W) 04:18:37 437.445
CUSAT 1 04 Aug 04:10:36 04:11:36 12° 87° (E) 04:12:40 437.405
BEESAT 04 Aug 04:14:12 04:16:59 15° 280° (W) 04:19:39 436.000
CUBESAT XI-V 04 Aug 04:15:18 04:18:21 18° 41° (NE) 04:21:27 437.345
TIGRISAT 04 Aug 04:21:53 04:22:08 10° 335° (NNW) 04:22:18 435.000
BEESAT 3 04 Aug 04:22:29 04:26:34 61° 2° (N) 04:30:38 437.485
STRAND 1 04 Aug 04:26:55 04:29:54 16° 31° (NNE) 04:32:58 437.568
POLYITAN 1 04 Aug 04:33:04 04:33:44 10° 329° (NNW) 04:34:17 437.675
BUGSAT 1 04 Aug 04:34:50 04:35:57 11° 325° (NW) 04:37:00 437.445
SWISSCUBE 04 Aug 04:38:09 04:38:37 10° 286° (WNW) 04:38:52 437.505
JAS-2 04 Aug 04:40:18 04:47:54 54° 97° (E) 04:55:36 435.910
M-CUBED/EXP-1 PRIME 04 Aug 04:41:53 04:43:59 13° 355° (N) 04:46:06 437.505
AO-7 04 Aug 04:45:35 04:52:50 32° 89° (E) 05:00:09 29.400- 29.500
O/OREOS (USA 219) 04 Aug 04:47:25 04:51:44 41° 329° (NNW) 04:56:06 437.305
RS-15 04 Aug 04:48:20 04:59:50 87° 206° (SSW) 05:11:54 29.354- 29.394
HORYU 2 04 Aug 04:56:51 05:00:42 27° 91° (E) 05:04:34 437.375
YUBILEINY 04 Aug 05:00:27 05:07:46 27° 330° (NNW) 05:15:01 435.215
AUBIESAT-1 04 Aug 05:07:50 05:09:47 13° 0° (N) 05:11:46 437.475
STARS 04 Aug 05:12:36 05:16:01 21° 272° (W) 05:19:24 437.465
Gurwin Techsat 1B 04 Aug 05:15:16 05:20:34 67° 296° (WNW) 05:25:51 435.225
ITAMSAT 1 04 Aug 05:17:58 05:23:09 70° 296° (WNW) 05:28:19 435.822/435.867
MOZHAYETS 4 04 Aug 05:24:20 05:28:54 52° 260° (W) 05:33:30
BEESAT 2 04 Aug 05:25:30 05:29:39 69° 14° (NNE) 05:33:46 435.950
Oscar 19 04 Aug 05:29:12 05:33:42 30° 311° (NW) 05:38:10 437.125/150
PRISM 04 Aug 05:30:52 05:33:48 19° 45° (NE) 05:36:47 437.425
AIST 2 04 Aug 05:42:42 05:46:58 62° 3° (N) 05:51:10 435.215
GONETS M04 04 Aug 05:46:09 05:53:47 37° 80° (E) 06:01:31
Cosmos 2504 04 Aug 05:50:20 05:57:27 41° 308° (NW) 06:05:04 435.465 / 435.565
CUBESAT XI-V 04 Aug 05:50:27 05:55:00 53° 63° (ENE) 05:59:33 437.345
CUSAT 1 04 Aug 05:51:01 05:53:37 60° 292° (WNW) 05:56:27 437.405
DANDE 04 Aug 05:55:08 05:57:46 88° 278° (W) 06:00:27 436.750
BEESAT 3 04 Aug 06:00:36 06:04:44 90° 212° (SSW) 06:08:49 437.485
STRAND 1 04 Aug 06:03:16 06:07:59 38° 54° (NE) 06:12:44 437.568
M-CUBED/EXP-1 PRIME 04 Aug 06:14:35 06:17:12 15° 18° (NNE) 06:19:54 437.505
Cubesat XI-IV 04 Aug 06:16:12 06:18:31 13° 76° (ENE) 06:21:00 437.490
JAS-2 04 Aug 06:25:34 06:33:10 64° 300° (WNW) 06:40:54 435.910
O/OREOS (USA 219) 04 Aug 06:28:21 06:32:12 26° 353° (N) 06:36:04 437.305
HORYU 2 04 Aug 06:33:15 06:37:47 72° 292° (WNW) 06:42:18 437.375
AO-7 04 Aug 06:38:30 06:46:57 82° 114° (ESE) 06:55:19 29.400- 29.500
AUBIESAT-1 04 Aug 06:40:07 06:42:58 17° 23° (NNE) 06:45:55 437.475
Gurwin Techsat 1B 04 Aug 06:55:40 06:59:52 24° 318° (NW) 07:03:59 435.225
ITAMSAT 1 04 Aug 06:57:53 07:02:01 24° 318° (NW) 07:06:05 435.822/435.867
RS-15 04 Aug 07:00:40 07:11:36 51° 236° (SW) 07:22:54 29.354- 29.394
YUBILEINY 04 Aug 07:02:00 07:08:17 21° 1° (N) 07:14:37 435.215
Cosmos 2499 04 Aug 07:03:22 07:09:45 29° 75° (ENE) 07:16:40 435.465 / 435.565
BEESAT 2 04 Aug 07:03:39 07:07:43 56° 217° (SW) 07:11:43 435.950
PRISM 04 Aug 07:04:29 07:08:39 67° 67° (ENE) 07:12:48 437.425
MOZHAYETS 4 04 Aug 07:05:08 07:07:18 13° 283° (WNW) 07:09:18
Oscar 19 04 Aug 07:09:10 07:11:44 14° 334° (NNW) 07:14:13 437.125/150
CUTE-I 04 Aug 07:09:58 07:14:25 26° 89° (E) 07:18:55 437.470
AIST 2 04 Aug 07:21:28 07:25:45 86° 207° (SSW) 07:29:58 435.215
CUBESAT XI-V 04 Aug 07:28:16 07:32:39 37° 265° (W) 07:36:59 437.345
BEESAT 3 04 Aug 07:38:42 07:42:23 33° 227° (SW) 07:46:01 437.485
DANDE 04 Aug 07:40:45 07:41:30 11° 315° (NW) 07:42:11 436.750
GONETS M04 04 Aug 07:41:12 07:49:56 86° 285° (WNW) 07:58:43
STRAND 1 04 Aug 07:41:56 07:47:03 64° 256° (WSW) 07:52:11 437.568
Cosmos 2504 04 Aug 07:46:29 07:52:18 22° 338° (NNW) 07:58:18 435.465 / 435.565
M-CUBED/EXP-1 PRIME 04 Aug 07:46:55 07:50:46 29° 40° (NE) 07:54:51 437.505
Cubesat XI-IV 04 Aug 07:54:54 08:00:05 47° 99° (E) 08:05:14 437.490
O/OREOS (USA 219) 04 Aug 08:08:48 08:12:50 29° 18° (NNE) 08:16:54 437.305
HORYU 2 04 Aug 08:10:23 08:13:50 22° 315° (NW) 08:17:14 437.375
JAS-2 04 Aug 08:10:44 08:17:10 31° 323° (NW) 08:23:42 435.910
AUBIESAT-1 04 Aug 08:12:33 08:16:37 35° 45° (NE) 08:20:53 437.475
UNISAT 6 04 Aug 08:22:59 08:25:32 15° 37° (NE) 08:28:11 437.425
HO-68 04 Aug 08:30:43 08:35:10 17° 75° (ENE) 08:39:50 435.675
AO-7 04 Aug 08:31:31 08:39:24 48° 319° (NW) 08:47:13 29.400- 29.500
Gurwin Techsat 1B 04 Aug 08:36:10 08:38:15 12° 342° (NNW) 08:40:17 435.225
ITAMSAT 1 04 Aug 08:37:58 08:40:00 12° 341° (NNW) 08:41:58 435.822/435.867
DOVE 4 04 Aug 08:39:40 08:42:04 14° 80° (E) 08:44:41 437.250
PRISM 04 Aug 08:40:54 08:44:28 26° 268° (W) 08:47:59 437.425
BEESAT 2 04 Aug 08:42:19 08:45:05 17° 238° (WSW) 08:47:46 435.950
CUTE-I 04 Aug 08:49:49 08:55:12 87° 292° (WNW) 09:00:33 437.470
PCSat 04 Aug 08:51:51 08:54:51 15° 109° (ESE) 08:58:00 145.827
Cosmos 2499 04 Aug 08:54:02 09:01:49 79° 101° (E) 09:10:19 435.465 / 435.565
AIST 2 04 Aug 09:00:13 09:03:59 31° 228° (SW) 09:07:40 435.215
YUBILEINY 04 Aug 09:01:20 09:08:45 29° 34° (NNE) 09:16:16 435.215
TIGRISAT 04 Aug 09:03:30 09:06:56 22° 46° (NE) 09:10:28 435.000
ANTELSAT 04 Aug 09:06:42 09:10:14 23° 48° (NE) 09:13:54 437.575/2403.000
GOMX 1 04 Aug 09:07:30 09:11:21 28° 92° (E) 09:15:25 467.674
SEEDS 04 Aug 09:13:17 09:15:56 16° 83° (E) 09:18:41 437.485
POLYITAN 1 04 Aug 09:13:31 09:15:57 15° 41° (NE) 09:18:29 437.675
RS-15 04 Aug 09:13:36 09:21:23 20° 263° (W) 09:28:51 29.354- 29.394
BRITE-PL 04 Aug 09:14:34 09:18:40 42° 98° (E) 09:23:02 437.365/2234.400
BUGSAT 1 04 Aug 09:15:30 09:16:55 12° 36° (NE) 09:18:25 437.445
M-CUBED/EXP-1 PRIME 04 Aug 09:20:39 09:25:06 87° 62° (ENE) 09:29:51 437.505
CUTE 1.7 + AOD 2 04 Aug 09:21:34 09:24:51 21° 87° (E) 09:28:10 437.475
STRAND 1 04 Aug 09:23:54 09:27:19 17° 278° (W) 09:30:38 437.568
POPSAT HIP 1 04 Aug 09:28:36 09:31:25 18° 44° (NE) 09:34:17 437.405
CANX-2 04 Aug 09:30:21 09:33:58 26° 90° (E) 09:37:37 2200.000
AAUSAT CUBESAT 2 04 Aug 09:30:43 09:33:21 16° 83° (E) 09:36:03 437.432
Cubesat XI-IV 04 Aug 09:35:08 09:40:19 51° 301° (WNW) 09:45:28 437.490
QB50P2 04 Aug 09:36:53 09:39:55 20° 46° (NE) 09:43:02 145.880/145.840
GONETS M04 04 Aug 09:40:05 09:48:05 38° 314° (NW) 09:56:03
Oscar 11 04 Aug 09:40:10 09:41:40 12° 78° (ENE) 09:43:17 145.826/435.025
Cosmos 2504 04 Aug 09:42:43 09:48:06 19° 9° (N) 09:53:44 435.465 / 435.565
UWE-3 04 Aug 09:45:00 09:46:49 12° 77° (ENE) 09:48:47 435.000/436.395/437.385
AUBIESAT-1 04 Aug 09:46:38 09:51:04 72° 247° (WSW) 09:55:46 437.475
O/OREOS (USA 219) 04 Aug 09:48:27 09:53:01 63° 42° (NE) 09:57:36 437.305
JAS-2 04 Aug 09:55:08 10:00:13 20° 348° (NNW) 10:05:24 435.910
DUCHIFAT 1 04 Aug 09:56:50 10:00:11 24° 50° (NE) 10:03:37 145.980
UNISAT 6 04 Aug 09:57:07 10:01:20 42° 59° (ENE) 10:05:42 437.425
CINEMA 3 04 Aug 09:59:43 10:03:44 28° 91° (E) 10:07:55 145.822/145.860
Cosmos 2491 04 Aug 09:59:50 10:02:31 12° 52° (NE) 10:05:35 435.465 / 435.565
SO-50 04 Aug 09:59:52 10:03:48 25° 125° (SE) 10:07:50 436.795
NANOSAT C BR1 04 Aug 10:02:28 10:05:57 26° 52° (NE) 10:09:29 145.865
QB50P1 04 Aug 10:02:43 10:06:13 26° 52° (NE) 10:09:48 145.935-145.965
CUBEBUG 2 04 Aug 10:07:05 10:10:28 20° 85° (E) 10:13:59 437.445
Gurwin Techsat 1B 04 Aug 10:15:04 10:16:10 11° 7° (N) 10:17:18 435.225
DOVE 4 04 Aug 10:16:20 10:20:49 59° 103° (ESE) 10:25:33 437.250
ITAMSAT 1 04 Aug 10:16:44 10:17:29 10° 6° (N) 10:18:15 435.822/435.867
HO-68 04 Aug 10:17:46 10:24:48 53° 101° (E) 10:31:49 435.675
AO-7 04 Aug 10:23:46 10:30:40 30° 346° (NNW) 10:37:31 29.400- 29.500
Oscar 19 04 Aug 10:24:11 10:26:29 13° 24° (NNE) 10:28:53 437.125/150
DELFI C3 04 Aug 10:26:49 10:29:36 18° 85° (E) 10:32:25 145.870
COMPASS 1 04 Aug 10:27:14 10:31:19 43° 98° (E) 10:35:22 437.405
CUTE-I 04 Aug 10:30:15 10:34:49 29° 314° (NW) 10:39:19 437.470
PCSat 04 Aug 10:32:01 10:37:12 49° 131° (SE) 10:42:28 145.827
TIGRISAT 04 Aug 10:38:38 10:43:05 75° 68° (ENE) 10:47:42 435.000
ANTELSAT 04 Aug 10:42:00 10:46:29 81° 69° (ENE) 10:51:07 437.575/2403.000
GOMX 1 04 Aug 10:45:28 10:49:52 68° 292° (WNW) 10:54:32 467.674
POLYITAN 1 04 Aug 10:46:59 10:51:03 48° 62° (ENE) 10:55:11 437.675
BUGSAT 1 04 Aug 10:47:45 10:51:26 35° 58° (ENE) 10:55:09 437.445
ZACube-1 04 Aug 10:48:09 10:51:59 26° 90° (E) 10:55:52 437.345
SEEDS 04 Aug 10:48:13 10:52:32 72° 104° (ESE) 10:56:49 437.485
Cosmos 2499 04 Aug 10:48:20 10:55:51 43° 309° (NW) 11:03:53 435.465 / 435.565
BRITE-PL 04 Aug 10:53:15 10:57:19 44° 299° (WNW) 11:01:37 437.365/2234.400
M-CUBED/EXP-1 PRIME 04 Aug 10:56:51 11:00:29 24° 265° (W) 11:04:14 437.505
CUTE 1.7 + AOD 2 04 Aug 10:57:00 11:01:21 87° 289° (WNW) 11:05:40 437.475
YUBILEINY 04 Aug 10:58:58 11:07:43 61° 63° (ENE) 11:16:29 435.215
POPSAT HIP 1 04 Aug 11:02:27 11:06:36 60° 65° (ENE) 11:10:48 437.405
AAUSAT CUBESAT 2 04 Aug 11:05:28 11:09:44 73° 105° (ESE) 11:13:57 437.432
HUMSAT D 04 Aug 11:05:30 11:08:35 19° 85° (E) 11:11:45 437.325/437.525
CANX-2 04 Aug 11:06:00 11:10:20 71° 292° (WNW) 11:14:38 2200.000
FUNcube-1 04 Aug 11:08:04 11:12:13 34° 94° (E) 11:16:25 145.935
QB50P2 04 Aug 11:11:01 11:15:14 71° 68° (ENE) 11:19:29 145.880/145.840
Oscar 11 04 Aug 11:14:40 11:18:57 50° 100° (E) 11:23:13 145.826/435.025
Cubesat XI-IV 04 Aug 11:15:41 11:19:30 20° 324° (NW) 11:23:15 437.490
UKube-1 04 Aug 11:17:09 11:19:44 16° 83° (E) 11:22:24 .
UWE-3 04 Aug 11:20:00 11:24:28 50° 100° (E) 11:29:01 435.000/436.395/437.385
AUBIESAT-1 04 Aug 11:23:30 11:26:36 18° 269° (W) 11:29:45 437.475
O/OREOS (USA 219) 04 Aug 11:28:04 11:32:19 37° 244° (WSW) 11:36:33 437.305
50 SAT 04 Aug 11:31:18 11:33:46 16° 84° (E) 11:36:19 437.505
DUCHIFAT 1 04 Aug 11:31:22 11:35:35 88° 250° (WSW) 11:39:50 145.980
UNISAT 6 04 Aug 11:33:48 11:38:08 47° 261° (W) 11:42:35 437.425
Cosmos 2504 04 Aug 11:36:36 11:43:32 29° 39° (NE) 11:50:50 435.465 / 435.565
CINEMA 3 04 Aug 11:36:44 11:41:20 71° 292° (WNW) 11:46:08 145.822/145.860
NANOSAT C BR1 04 Aug 11:37:14 11:41:26 79° 253° (WSW) 11:45:42 145.865
QB50P1 04 Aug 11:37:32 11:41:45 78° 253° (WSW) 11:46:01 145.935-145.965
JAS-2 04 Aug 11:37:56 11:42:53 20° 14° (NNE) 11:48:09 435.910
SO-50 04 Aug 11:38:52 11:43:44 67° 147° (SSE) 11:48:43 436.795
AISAT 04 Aug 11:41:01 11:44:04 18° 85° (E) 11:47:12 437.250
GONETS M04 04 Aug 11:41:33 11:48:03 22° 345° (NNW) 11:54:29
CUBEBUG 2 04 Aug 11:43:13 11:47:52 82° 109° (ESE) 11:52:36 437.445
CUBEBUG 1 04 Aug 11:44:15 11:46:19 13° 80° (E) 11:48:31 437.445
Cosmos 2491 04 Aug 11:49:11 11:56:42 35° 79° (E) 12:04:19 435.465 / 435.565
DX 1 04 Aug 11:50:22 11:54:06 27° 92° (E) 11:57:51 434.975-435.025
Gurwin Techsat 1B 04 Aug 11:50:59 11:54:17 17° 32° (NNE) 11:57:40 435.225
ITAMSAT 1 04 Aug 11:52:02 11:55:09 16° 31° (NNE) 11:58:20 435.822/435.867
DOVE 4 04 Aug 11:54:22 11:58:28 36° 302° (WNW) 12:02:46 437.250
Oscar 19 04 Aug 12:00:08 12:04:28 28° 47° (NE) 12:08:51 437.125/150
DELFI C3 04 Aug 12:01:12 12:05:19 84° 107° (ESE) 12:09:24 145.870
COMPASS 1 04 Aug 12:02:59 12:07:01 41° 299° (WNW) 12:11:00 437.405
HO-68 04 Aug 12:05:43 12:12:47 61° 305° (NW) 12:19:50 435.675
CUTE-I 04 Aug 12:10:48 12:13:30 14° 337° (NNW) 12:16:06 437.470
AO-7 04 Aug 12:14:35 12:21:25 30° 13° (NNE) 12:28:17 29.400- 29.500
PCSat 04 Aug 12:15:06 12:20:33 74° 333° (NNW) 12:26:02 145.827
TIGRISAT 04 Aug 12:16:35 12:20:20 26° 271° (W) 12:24:09 435.000
VELOX 1 04 Aug 12:18:30 12:22:26 31° 94° (E) 12:26:24 145.980
ANTELSAT 04 Aug 12:20:09 12:23:50 24° 272° (W) 12:27:33 437.575/2403.000
BUGSAT 1 04 Aug 12:22:55 12:26:50 48° 259° (W) 12:30:47 437.445
POLYITAN 1 04 Aug 12:23:10 12:27:06 36° 264° (W) 12:31:04 437.675
ZACube-1 04 Aug 12:24:14 12:28:46 75° 292° (WNW) 12:33:22 437.345
GOMX 1 04 Aug 12:24:16 12:27:28 20° 313° (NW) 12:30:45 467.674
SEEDS 04 Aug 12:24:21 12:28:03 28° 306° (NW) 12:31:41 437.485
AIST 1 04 Aug 12:28:16 12:32:19 41° 94° (E) 12:36:23
BRITE-PL 04 Aug 12:32:47 12:35:03 14° 320° (NW) 12:37:19 437.365/2234.400
CUTE 1.7 + AOD 2 04 Aug 12:33:22 12:36:48 23° 310° (NW) 12:40:11 437.475
POPSAT HIP 1 04 Aug 12:39:04 12:42:48 29° 267° (W) 12:46:30 437.405
HUMSAT D 04 Aug 12:40:37 12:44:59 84° 107° (ESE) 12:49:21 437.325/437.525
AAUSAT CUBESAT 2 04 Aug 12:41:25 12:45:02 27° 306° (NW) 12:48:34 437.432
CANX-2 04 Aug 12:42:29 12:45:40 20° 313° (NW) 12:48:48 2200.000
FUNcube-1 04 Aug 12:44:19 12:48:46 57° 296° (WNW) 12:53:16 145.935
ESTCUBE 1 04 Aug 12:44:44 12:48:58 38° 96° (E) 12:53:12 437.505/2401.250
Cosmos 2499 04 Aug 12:45:24 12:51:42 23° 338° (NNW) 12:58:13 435.465 / 435.565
QB50P2 04 Aug 12:48:00 12:51:33 25° 269° (W) 12:55:05 145.880/145.840
CUSAT 1 04 Aug 12:49:15 12:50:50 12° 44° (NE) 12:52:41 437.405
Oscar 11 04 Aug 12:51:00 12:55:05 38° 301° (WNW) 12:59:08 145.826/435.025
UKube-1 04 Aug 12:52:22 12:56:43 68° 106° (ESE) 13:01:01 .
YUBILEINY 04 Aug 12:56:07 13:04:41 57° 269° (W) 13:13:12 435.215
Cubesat XI-IV 04 Aug 12:56:08 12:57:52 12° 348° (NNW) 12:59:34 437.490
UWE-3 04 Aug 12:56:40 13:00:59 41° 300° (WNW) 13:05:19 435.000/436.395/437.385
HORYU 2 04 Aug 12:57:44 12:58:28 10° 26° (NNE) 12:59:15 437.375
50 SAT 04 Aug 13:05:01 13:09:03 77° 107° (ESE) 13:13:02 437.505
DUCHIFAT 1 04 Aug 13:08:57 13:12:02 19° 274° (W) 13:15:03 145.980
CINEMA 3 04 Aug 13:14:28 13:17:58 22° 313° (NW) 13:21:31 145.822/145.860
UNISAT 6 04 Aug 13:14:43 13:16:11 11° 284° (WNW) 13:17:29 437.425
NANOSAT C BR1 04 Aug 13:15:09 13:18:01 17° 275° (W) 13:20:48 145.865
QB50P1 04 Aug 13:15:31 13:18:22 17° 275° (W) 13:21:08 145.935-145.965
AISAT 04 Aug 13:16:57 13:21:24 79° 107° (ESE) 13:25:50 437.250
CUBEBUG 1 04 Aug 13:19:22 13:23:40 58° 103° (ESE) 13:27:57 437.445
SO-50 04 Aug 13:19:26 13:24:24 72° 351° (N) 13:29:24 436.795
JAS-2 04 Aug 13:19:59 13:26:00 33° 39° (NE) 13:32:35 435.910
CUBEBUG 2 04 Aug 13:20:17 13:24:12 28° 308° (NW) 13:28:09 437.445
DX 1 04 Aug 13:26:24 13:30:44 67° 294° (WNW) 13:35:03 434.975-435.025
Gurwin Techsat 1B 04 Aug 13:28:13 13:33:10 41° 55° (NE) 13:38:09 435.225
ITAMSAT 1 04 Aug 13:28:44 13:33:32 39° 54° (NE) 13:38:21 435.822/435.867
Cosmos 2504 04 Aug 13:29:17 13:37:30 64° 66° (ENE) 13:46:05 435.465 / 435.565
DOVE 4 04 Aug 13:33:12 13:35:14 13° 324° (NW) 13:37:14 437.250
DELFI C3 04 Aug 13:36:42 13:40:00 24° 308° (NW) 13:43:15 145.870
TISAT 1 04 Aug 13:37:54 13:41:28 26° 92° (E) 13:45:04 437.305
Oscar 19 04 Aug 13:38:12 13:43:21 88° 75° (ENE) 13:48:35 437.125/150
COMPASS 1 04 Aug 13:39:36 13:41:46 14° 321° (NW) 13:43:51 437.405
SPROUT 04 Aug 13:40:49 13:44:52 38° 97° (E) 13:48:56 437.525
GONETS M04 04 Aug 13:42:13 13:48:44 23° 17° (NNE) 13:55:21
Cosmos 2491 04 Aug 13:43:59 13:52:46 89° 105° (ESE) 14:01:35 435.465 / 435.565
CUTE-I 04 Aug 13:50:25 13:51:34 11° 2° (N) 13:52:44 437.470
HO-68 04 Aug 13:53:32 13:59:32 29° 329° (NNW) 14:05:28 435.675
VELOX 1 04 Aug 13:54:56 13:59:18 60° 295° (WNW) 14:03:39 145.980
PCSat 04 Aug 13:59:12 14:04:33 53° 358° (N) 14:09:54 145.827
ZACube-1 04 Aug 14:01:06 14:04:35 22° 312° (NW) 14:08:02 437.345
SEEDS 04 Aug 14:01:52 14:02:39 10° 328° (NNW) 14:03:21 437.485
BUGSAT 1 04 Aug 14:02:40 14:03:23 10° 282° (WNW) 14:03:56 437.445
AO-7 04 Aug 14:04:50 14:12:38 46° 40° (NE) 14:20:29 29.400- 29.500
AIST 1 04 Aug 14:05:52 14:10:01 42° 296° (WNW) 14:14:08
HUMSAT D 04 Aug 14:16:45 14:20:20 25° 308° (NW) 14:23:54 437.325/437.525
FUNcube-1 04 Aug 14:21:17 14:24:21 18° 317° (NW) 14:27:23 145.935
ESTCUBE 1 04 Aug 14:21:37 14:26:01 50° 298° (WNW) 14:30:21 437.505/2401.250
BEESAT 04 Aug 14:22:49 14:26:11 19° 84° (E) 14:29:38 436.000
Oscar 11 04 Aug 14:28:09 14:30:17 13° 323° (NW) 14:32:21 145.826/435.025
UKube-1 04 Aug 14:28:48 14:32:36 30° 307° (NW) 14:36:22 .
HORYU 2 04 Aug 14:30:09 14:33:46 25° 48° (NE) 14:37:28 437.375
CUSAT 1 04 Aug 14:30:31 14:34:06 48° 66° (ENE) 14:38:47 437.405
UWE-3 04 Aug 14:34:02 14:36:33 15° 322° (NW) 14:39:01 435.000/436.395/437.385
Cubesat XI-IV 04 Aug 14:34:04 14:35:55 12° 14° (NNE) 14:37:48 437.490
DANDE 04 Aug 14:37:51 14:40:56 36° 63° (ENE) 14:44:53 436.750
50 SAT 04 Aug 14:39:59 14:43:17 25° 307° (NW) 14:46:31 437.505
